N499C KLUK-

Flight info

Callsign N499C
Flight time N/A
Altitude
Route N
Aircraft A109/L-DOV/C

Departure

Time 2026-04-19 04:51
Airport Cincinnati Municipal Airport Lunken Field (KLUK)

Arrival

Time N/A
Airport -
Time Latitude Longitude Altitude Speed Heading
2026-04-19 04:46 39.11137 -84.41882 467 ft 0 kts 117°
2026-04-19 04:50 39.11133 -84.41885 486 ft 2 kts 109°
2026-04-19 04:50 39.11128 -84.41872 552 ft 3 kts 104°
2026-04-19 04:50 39.11119 -84.41878 624 ft 4 kts 74°
2026-04-19 04:50 39.11130 -84.41802 700 ft 13 kts 44°
2026-04-19 04:51 39.11173 -84.41688 787 ft 18 kts 28°
2026-04-19 04:51 39.11275 -84.41557 946 ft 30 kts 26°
2026-04-19 04:51 39.11481 -84.41271 1241 ft 62 kts 33°
2026-04-19 04:51 39.11870 -84.40820 1591 ft 86 kts 31°
2026-04-19 04:52 39.12321 -84.40295 1941 ft 88 kts 29°
2026-04-19 04:52 39.12792 -84.39784 2078 ft 88 kts 33°
2026-04-19 04:52 39.13245 -84.39298 2128 ft 81 kts 27°
2026-04-19 04:52 39.13656 -84.38886 2150 ft 71 kts 23°
2026-04-19 04:53 39.14022 -84.38517 2181 ft 58 kts 21°
2026-04-19 04:53 39.14328 -84.38210 2157 ft 55 kts 21°
2026-04-19 04:53 39.14583 -84.37905 2153 ft 45 kts 28°
2026-04-19 04:53 39.14798 -84.37612 2103 ft 47 kts 20°
2026-04-19 04:54 39.15064 -84.37314 2102 ft 55 kts 21°
2026-04-19 04:54 39.15385 -84.36982 2104 ft 63 kts 21°
2026-04-19 04:54 39.15728 -84.36625 2109 ft 62 kts 17°
2026-04-19 04:54 39.16079 -84.36303 2071 ft 62 kts 15°
2026-04-19 04:55 39.16459 -84.36020 2046 ft 63 kts 20°
2026-04-19 04:55 39.16850 -84.35757 2041 ft 60 kts
2026-04-19 04:55 39.17189 -84.35516 2034 ft 51 kts 354°
2026-04-19 04:55 39.17467 -84.35262 2027 ft 44 kts 354°
2026-04-19 04:56 39.17688 -84.35036 2027 ft 38 kts 354°
2026-04-19 04:56 39.17835 -84.34785 2022 ft 33 kts 14°
2026-04-19 04:56 39.17888 -84.34522 2015 ft 26 kts 13°
2026-04-19 04:56 39.17844 -84.34295 2021 ft 27 kts 13°
2026-04-19 04:57 39.17734 -84.34090 2025 ft 29 kts 13°
2026-04-19 04:57 39.17593 -84.33890 2028 ft 28 kts 13°
2026-04-19 04:57 39.17598 -84.33675 2048 ft 36 kts 12°
2026-04-19 04:57 39.17885 -84.33376 2046 ft 66 kts 13°
2026-04-19 04:58 39.18361 -84.33051 2041 ft 83 kts 11°
2026-04-19 04:58 39.18906 -84.32755 2054 ft 80 kts
2026-04-19 04:58 39.19381 -84.32465 2024 ft 77 kts 17°
2026-04-19 04:58 39.19884 -84.32156 2032 ft 81 kts 12°
2026-04-19 04:59 39.20389 -84.31827 2033 ft 80 kts 13°
2026-04-19 04:59 39.20887 -84.31506 2029 ft 80 kts 14°
2026-04-19 04:59 39.21386 -84.31187 2030 ft 80 kts 12°
2026-04-19 04:59 39.21886 -84.30860 2029 ft 79 kts 12°
2026-04-19 05:00 39.22374 -84.30541 2031 ft 79 kts 12°
2026-04-19 05:00 39.22838 -84.30102 2027 ft 86 kts 31°
2026-04-19 05:00 39.23272 -84.29562 2029 ft 86 kts 31°
2026-04-19 05:00 39.23702 -84.29009 2020 ft 87 kts 31°
2026-04-19 05:01 39.24137 -84.28462 2023 ft 88 kts 30°
2026-04-19 05:01 39.24577 -84.27900 2023 ft 88 kts 29°
2026-04-19 05:01 39.25003 -84.27326 2022 ft 87 kts 31°
2026-04-19 05:01 39.25414 -84.26769 2015 ft 86 kts 30°
2026-04-19 05:02 39.25821 -84.26191 2015 ft 85 kts 31°
2026-04-19 05:02 39.26225 -84.25623 2017 ft 85 kts 30°
2026-04-19 05:02 39.26633 -84.25070 2018 ft 84 kts 32°
2026-04-19 05:02 39.27039 -84.24538 2013 ft 83 kts 31°
2026-04-19 05:03 39.27448 -84.24017 2013 ft 82 kts 30°
2026-04-19 05:03 39.27858 -84.23499 2014 ft 82 kts 32°
2026-04-19 05:03 39.28272 -84.22975 2015 ft 83 kts 31°
2026-04-19 05:03 39.28690 -84.22445 2017 ft 84 kts 31°
2026-04-19 05:04 39.29101 -84.21914 2016 ft 84 kts 31°
2026-04-19 05:04 39.29541 -84.21369 2000 ft 93 kts 32°
2026-04-19 05:04 39.30046 -84.20772 2017 ft 100 kts 29°
2026-04-19 05:04 39.30554 -84.20155 2016 ft 99 kts 29°
2026-04-19 05:05 39.31050 -84.19541 2013 ft 97 kts 31°
2026-04-19 05:05 39.31548 -84.18935 1996 ft 105 kts 35°
2026-04-19 05:05 39.32169 -84.18246 1993 ft 128 kts 31°
2026-04-19 05:05 39.32893 -84.17483 2010 ft 138 kts 30°
2026-04-19 05:06 39.33648 -84.16685 2015 ft 139 kts 30°
2026-04-19 05:06 39.34401 -84.15903 2010 ft 138 kts 31°
2026-04-19 05:06 39.35147 -84.15125 2004 ft 138 kts 30°
2026-04-19 05:06 39.35891 -84.14346 2003 ft 139 kts 32°
2026-04-19 05:07 39.36644 -84.13556 2007 ft 139 kts 31°
2026-04-19 05:07 39.37402 -84.12761 2008 ft 140 kts 30°
2026-04-19 05:07 39.38154 -84.11973 2011 ft 140 kts 30°
2026-04-19 05:07 39.38924 -84.11162 2011 ft 141 kts 30°
2026-04-19 05:08 39.39709 -84.10455 2009 ft 138 kts 22°
2026-04-19 05:08 39.41327 -84.09141 2015 ft 136 kts 24°
2026-04-19 05:08 39.42137 -84.08498 2002 ft 136 kts 24°
2026-04-19 05:09 39.42957 -84.07856 2005 ft 136 kts 23°
2026-04-19 05:09 39.43767 -84.07228 2003 ft 135 kts 22°
2026-04-19 05:09 39.44581 -84.06599 1999 ft 136 kts 24°
2026-04-19 05:09 39.45404 -84.05974 1996 ft 138 kts 24°
2026-04-19 05:10 39.46240 -84.05342 1999 ft 140 kts 23°
2026-04-19 05:10 39.47094 -84.04697 2000 ft 141 kts 23°
2026-04-19 05:10 39.47942 -84.04047 2002 ft 142 kts 24°
2026-04-19 05:10 39.48781 -84.03399 1991 ft 135 kts 24°
2026-04-19 05:11 39.49590 -84.02752 2000 ft 140 kts 23°
2026-04-19 05:11 39.50426 -84.02065 2001 ft 140 kts 24°
2026-04-19 05:11 39.51261 -84.01386 2003 ft 142 kts 23°
2026-04-19 05:11 39.52101 -84.00710 2003 ft 143 kts 23°
2026-04-19 05:12 39.52963 -84.00024 2001 ft 144 kts 24°
2026-04-19 05:12 39.53824 -83.99361 2007 ft 143 kts 23°
2026-04-19 05:12 39.54688 -83.98721 2001 ft 143 kts 23°
2026-04-19 05:12 39.55552 -83.98064 2000 ft 143 kts 24°
2026-04-19 05:13 39.56410 -83.97412 1998 ft 144 kts 24°
2026-04-19 05:13 39.57278 -83.96761 2000 ft 143 kts 24°
2026-04-19 05:13 39.58144 -83.96121 1996 ft 142 kts 23°
2026-04-19 05:13 39.58993 -83.95484 1999 ft 142 kts 23°
2026-04-19 05:14 39.59860 -83.94840 2001 ft 142 kts 23°
2026-04-19 05:14 39.60715 -83.94209 2002 ft 141 kts 23°
2026-04-19 05:14 39.61568 -83.93574 1999 ft 141 kts 23°
2026-04-19 05:14 39.62420 -83.92937 1998 ft 142 kts 23°
2026-04-19 05:15 39.63291 -83.92288 1998 ft 142 kts 23°
2026-04-19 05:15 39.64151 -83.91645 2002 ft 141 kts 23°
2026-04-19 05:15 39.65014 -83.90998 2007 ft 141 kts 23°
2026-04-19 05:15 39.65860 -83.90357 2006 ft 141 kts 23°
2026-04-19 05:16 39.66713 -83.89710 2006 ft 141 kts 23°
2026-04-19 05:16 39.67556 -83.89067 2006 ft 140 kts 23°
2026-04-19 05:16 39.68427 -83.88497 2003 ft 137 kts 11°
2026-04-19 05:16 39.69338 -83.88180 2001 ft 137 kts
2026-04-19 05:17 39.70275 -83.87869 1999 ft 138 kts
2026-04-19 05:17 39.71210 -83.87563 1999 ft 138 kts
2026-04-19 05:17 39.72139 -83.87246 2000 ft 139 kts
2026-04-19 05:17 39.73085 -83.86920 1998 ft 139 kts
2026-04-19 05:18 39.74025 -83.86594 2001 ft 140 kts
2026-04-19 05:18 39.74971 -83.86271 2003 ft 139 kts
2026-04-19 05:18 39.75879 -83.85999 2016 ft 128 kts
2026-04-19 05:18 39.76704 -83.85825 2066 ft 114 kts
2026-04-19 05:19 39.77452 -83.85682 2139 ft 102 kts 359°
2026-04-19 05:19 39.78122 -83.85540 2176 ft 92 kts 359°
2026-04-19 05:19 39.78719 -83.85405 2251 ft 86 kts 360°
2026-04-19 05:19 39.79347 -83.85272 2203 ft 96 kts 359°
2026-04-19 05:20 39.80013 -83.85131 2237 ft 96 kts
2026-04-19 05:20 39.80676 -83.84988 2237 ft 95 kts 359°
2026-04-19 05:20 39.81298 -83.84854 2161 ft 84 kts 359°
2026-04-19 05:20 39.81844 -83.84716 2125 ft 76 kts 359°
2026-04-19 05:21 39.82341 -83.84550 2024 ft 69 kts
2026-04-19 05:21 39.82774 -83.84360 1899 ft 63 kts 10°
2026-04-19 05:21 39.83177 -83.84148 1716 ft 64 kts
2026-04-19 05:21 39.83595 -83.83933 1581 ft 65 kts 10°
2026-04-19 05:22 39.84011 -83.83727 1528 ft 61 kts
2026-04-19 05:22 39.84330 -83.83601 1462 ft 34 kts
2026-04-19 05:22 39.84522 -83.83510 1347 ft 28 kts 359°
2026-04-19 05:22 39.84679 -83.83391 1282 ft 23 kts 335°
2026-04-19 05:23 39.84794 -83.83335 1194 ft 13 kts 274°
2026-04-19 05:23 39.84814 -83.83371 1147 ft 10 kts 244°
2026-04-19 05:23 39.84781 -83.83431 1108 ft 4 kts 241°
2026-04-19 05:23 39.84774 -83.83447 1055 ft 1 kts 236°
2026-04-19 05:24 39.84773 -83.83448 1047 ft 0 kts 237°
2026-04-19 05:25 39.84765 -83.83463 1048 ft 3 kts 233°
2026-04-19 05:25 39.84756 -83.83478 1048 ft 1 kts 234°
2026-04-19 05:25 39.84755 -83.83479 1048 ft 0 kts 234°
2026-04-19 05:26 39.84750 -83.83485 1051 ft 1 kts 239°
2026-04-19 05:26 39.84749 -83.83505 1061 ft 4 kts 261°
2026-04-19 05:26 39.84750 -83.83551 1060 ft 4 kts 275°
2026-04-19 05:26 39.84753 -83.83580 1048 ft 1 kts 278°
2026-04-19 05:27 39.84754 -83.83581 1048 ft 0 kts 277°